| time (UTC) | temp F | wind direction | speed MPH | gust MPH | rain 1hr in | rain 24hr in | rain mn in | humidity % | barometer mb |
| 20260506134540 | 47 | 48 | 7.0 | 14.0 | 0.27 | 3.51 | 1.44 | 96 | 1006.8 |
| 20260506133042 | 47 | 53 | 9.0 | 13.0 | 0.27 | 3.45 | 1.38 | 96 | 1006.7 |
| 20260506131541 | 47 | 37 | 7.0 | 15.0 | 0.25 | 3.40 | 1.33 | 95 | 1006.7 |
| 20260506130038 | 47 | 51 | 8.0 | 14.0 | 0.22 | 3.34 | 1.27 | 95 | 1006.6 |
| 20260506124536 | 47 | 78 | 9.0 | 13.0 | 0.21 | 3.29 | 1.17 | 95 | 1006.6 |
| 20260506123037 | 47 | 55 | 9.0 | 14.0 | 0.17 | 3.23 | 1.11 | 95 | 1006.6 |
| 20260506121535 | 47 | 57 | 6.0 | 11.0 | 0.24 | 3.20 | 1.08 | 96 | 1006.4 |
| 20260506120039 | 47 | 73 | 11.0 | 15.0 | 0.20 | 3.17 | 1.05 | 96 | 1006.4 |
| 20260506114536 | 47 | 88 | 6.0 | 14.0 | 0.12 | 3.22 | 0.96 | 96 | 1006.4 |
| 20260506113040 | 47 | 70 | 7.0 | 14.0 | 0.09 | 3.17 | 0.91 | 96 | 1006.4 |
| 20260506111533 | 47 | 82 | 7.0 | 10.0 | 0.03 | 3.10 | 0.84 | 96 | 1006.4 |
| 20260506110033 | 46 | 72 | 7.0 | 11.0 | 0.04 | 3.10 | 0.84 | 96 | 1006.4 |
| 20260506104534 | 46 | 46 | 8.0 | 13.0 | 0.07 | 3.10 | 0.84 | 96 | 1006.4 |
| 20260506103031 | 46 | 71 | 8.0 | 12.0 | 0.06 | 3.08 | 0.82 | 96 | 1006.5 |
| 20260506101530 | 46 | 65 | 5.0 | 10.0 | 0.09 | 3.07 | 0.81 | 96 | 1006.3 |
| 20260506100028 | 45 | 64 | 10.0 | 13.0 | 0.10 | 3.06 | 0.80 | 96 | 1006.3 |
| 20260506094527 | 45 | 73 | 10.0 | 15.0 | 0.09 | 3.07 | 0.77 | 96 | 1006.3 |
| 20260506093025 | 45 | 63 | 7.0 | 14.0 | 0.10 | 3.06 | 0.76 | 96 | 1006.1 |
| 20260506091523 | 45 | 51 | 7.0 | 13.0 | 0.07 | 3.02 | 0.72 | 95 | 1006.2 |
| 20260506090024 | 45 | 75 | 8.0 | 13.0 | 0.06 | 3.00 | 0.70 | 96 | 1006.2 |
| 20260506084521 | 44 | 71 | 8.0 | 12.0 | 0.04 | 2.98 | 0.68 | 96 | 1006.2 |
| 20260506083020 | 44 | 62 | 5.0 | 12.0 | 0.02 | 2.97 | 0.66 | 95 | 1006.1 |
| 20260506081521 | 44 | 51 | 6.0 | 11.0 | 0.01 | 2.95 | 0.65 | 95 | 1006.1 |
| 20260506073018 | 43 | 61 | 5.0 | 8.0 | 0.01 | 2.95 | 0.64 | 95 | 1005.9 |
| 20260506071518 | 43 | 55 | 6.0 | 10.0 | 0.02 | 2.95 | 0.64 | 95 | 1005.8 |
| 20260506061515 | 43 | 51 | 9.0 | 14.0 | 0.09 | 2.95 | 0.62 | 95 | 1005.4 |
| 20260506044558 | 46 | 44 | 7.0 | 10.0 | 0.02 | 3.17 | 0.51 | 94 | 1005.4 |
| 20260506043057 | 46 | 45 | 6.0 | 12.0 | 0.02 | 3.17 | 0.51 | 94 | 1005.5 |
| 20260506041553 | 47 | 49 | 4.0 | 7.0 | 0.02 | 3.17 | 0.50 | 95 | 1005.5 |
| 20260506040051 | 47 | 63 | 6.0 | 11.0 | 0.02 | 3.17 | 0.50 | 94 | 1005.5 |
| 20260506034602 | 47 | 68 | 7.0 | 10.0 | 0.04 | 3.28 | 0.50 | 94 | 1005.6 |
| 20260506033048 | 47 | 59 | 6.0 | 9.0 | 0.03 | 3.27 | 0.49 | 94 | 1005.7 |
| 20260506031547 | 47 | 61 | 6.0 | 10.0 | 0.03 | 3.27 | 0.49 | 94 | 1005.7 |
| 20260506030047 | 47 | 79 | 6.0 | 10.0 | 0.03 | 3.27 | 0.49 | 94 | 1005.8 |
| 20260506024602 | 48 | 61 | 5.0 | 9.0 | 0.00 | 3.24 | 0.46 | 93 | 1005.9 |
| 20260506023041 | 48 | 72 | 5.0 | 9.0 | 0.02 | 3.24 | 0.46 | 93 | 1005.9 |
| 20260506021538 | 48 | 90 | 6.0 | 9.0 | 0.02 | 3.24 | 0.46 | 92 | 1006.1 |
| 20260506020034 | 48 | 71 | 6.0 | 9.0 | 0.02 | 3.24 | 0.46 | 92 | 1006.0 |
| 20260506014532 | 48 | 63 | 6.0 | 10.0 | 0.08 | 3.26 | 0.46 | 91 | 1006.2 |
| 20260506013039 | 49 | 72 | 6.0 | 9.0 | 0.19 | 3.24 | 0.44 | 90 | 1006.1 |
| 20260506011526 | 49 | 67 | 5.0 | 12.0 | 0.19 | 3.24 | 0.44 | 89 | 1006.3 |
| 20260506010029 | 50 | 73 | 8.0 | 14.0 | 0.24 | 3.24 | 0.43 | 87 | 1006.3 |
| 20260506004522 | 50 | 65 | 7.0 | 16.0 | 0.23 | 3.17 | 0.36 | 86 | 1006.4 |
| 20260506003019 | 50 | 93 | 6.0 | 11.0 | 0.12 | 3.06 | 0.25 | 88 | 1006.5 |
| 20260506001520 | 50 | 56 | 6.0 | 11.0 | 0.12 | 3.06 | 0.25 | 89 | 1006.6 |
| 20260506000014 | 50 | 64 | 8.0 | 10.0 | 0.06 | 2.98 | 0.17 | 90 | 1006.7 |
| 20260505234513 | 50 | 84 | 5.0 | 11.0 | 0.02 | 2.94 | 0.13 | 90 | 1006.9 |
| 20260505233018 | 51 | 53 | 6.0 | 9.0 | 0.07 | 2.94 | 0.13 | 90 | 1007.0 |
| 20260505231511 | 51 | 72 | 5.0 | 9.0 | 0.13 | 2.94 | 0.13 | 90 | 1007.1 |
| 20260505230025 | 51 | 74 | 5.0 | 9.0 | 0.11 | 2.91 | 0.11 | 91 | 1007.1 |
| 20260505224506 | 51 | 69 | 7.0 | 11.0 | 0.18 | 2.91 | 0.11 | 91 | 1007.2 |
| 20260505223004 | 51 | 53 | 5.0 | 10.0 | 0.24 | 2.87 | 0.06 | 91 | 1007.3 |
| 20260505221502 | 51 | 77 | 7.0 | 9.0 | 0.35 | 2.81 | 0.01 | 91 | 1007.3 |
| 20260505220108 | 51 | 73 | 5.0 | 10.0 | 0.43 | 2.80 | 0.00 | 91 | 1007.3 |
| 20260505214557 | 51 | 72 | 9.0 | 15.0 | 0.48 | 2.73 | 2.73 | 91 | 1007.5 |
| 20260505213100 | 51 | 75 | 7.0 | 14.0 | 0.50 | 2.62 | 2.62 | 91 | 1007.7 |
| 20260505211555 | 51 | 89 | 8.0 | 12.0 | 0.48 | 2.46 | 2.46 | 91 | 1007.8 |
| 20260505210054 | 51 | 74 | 7.0 | 13.0 | 0.48 | 2.34 | 2.34 | 92 | 1007.8 |
| 20260505204601 | 51 | 75 | 8.0 | 14.0 | 0.55 | 2.25 | 2.25 | 92 | 1008.0 |
| 20260505203057 | 52 | 69 | 6.0 | 12.0 | 0.43 | 2.12 | 2.12 | 92 | 1007.8 |
| 20260505201551 | 52 | 59 | 7.0 | 12.0 | 0.42 | 1.98 | 1.98 | 92 | 1007.8 |
| 20260505200050 | 52 | 67 | 8.0 | 14.0 | 0.38 | 1.86 | 1.86 | 92 | 1007.8 |
| 20260505194602 | 52 | 39 | 6.0 | 9.0 | 0.32 | 2.39 | 1.70 | 92 | 1007.7 |
| 20260505193047 | 53 | 77 | 8.0 | 12.0 | 0.31 | 2.37 | 1.68 | 93 | 1007.8 |
| 20260505191546 | 53 | 75 | 8.0 | 12.0 | 0.31 | 2.25 | 1.56 | 93 | 1007.6 |
| 20260505190044 | 53 | 82 | 6.0 | 11.0 | 0.22 | 2.17 | 1.47 | 92 | 1007.6 |
| 20260505184544 | 53 | 75 | 5.0 | 9.0 | 0.13 | 2.06 | 1.38 | 93 | 1007.7 |
| 20260505183049 | 53 | 63 | 7.0 | 12.0 | 0.11 | 2.06 | 1.36 | 93 | 1007.8 |
| 20260505181540 | 53 | 73 | 8.0 | 13.0 | 0.00 | 1.94 | 1.25 | 93 | 1007.6 |
| 20260505180039 | 53 | 82 | 5.0 | 9.0 | 0.02 | 1.94 | 1.25 | 94 | 1007.7 |
| 20260505174537 | 53 | 63 | 6.0 | 8.0 | 0.04 | 1.94 | 1.25 | 94 | 1007.7 |
| 20260505173043 | 53 | 68 | 6.0 | 8.0 | 0.05 | 1.94 | 1.25 | 94 | 1008.0 |
| 20260505171537 | 53 | 60 | 6.0 | 10.0 | 0.10 | 1.94 | 1.25 | 94 | 1007.8 |
| 20260505170037 | 53 | 59 | 7.0 | 10.0 | 0.17 | 1.93 | 1.24 | 93 | 1008.0 |
| 20260505164547 | 54 | 75 | 5.0 | 10.0 | 0.15 | 1.91 | 1.21 | 93 | 1008.2 |
| 20260505163032 | 53 | 56 | 7.0 | 11.0 | 0.25 | 1.89 | 1.20 | 93 | 1008.2 |
| 20260505161531 | 54 | 75 | 6.0 | 10.0 | 0.24 | 1.84 | 1.14 | 93 | 1008.2 |
| 20260505153040 | 53 | 59 | 6.0 | 10.0 | 0.04 | 1.66 | 0.94 | 94 | 1008.4 |
| 20260505151526 | 53 | 51 | 5.0 | 9.0 | 0.04 | 1.63 | 0.91 | 94 | 1008.4 |